Home   Weather   Danville   Past weeks
Flag for USA

Past Weather in Danville, Kentucky, USA — Yesterday and Last 2 Weeks

Now
52 °F

Passing clouds.


Feels Like: 52 °F
Forecast: 77 / 54 °F
Wind: No wind

Location: Somerset Weather Reporting Station

Current Time: Apr 7, 2020 at 4:44:35 am

Latest Report: Apr 7, 2020 at 3:55 am


Visibility: 10 mi

Pressure: 30.01 "Hg

Humidity: 94%

Dew Point: 50 °F

Location of DanvilleLocation

Past Weather in Danville — Graph

°F

Danville Temperature Yesterday

Maximum temperature yesterday: 73 °F (at 2:55 pm)
Minimum temperature yesterday: 45 °F (at 6:55 am)
Average temperature yesterday: 62 °F

High & Low Weather Summary for the Past Weeks

 TemperatureHumidityPressure
High79 °F (Mar 27, 3:15 pm)100% (Mar 23, 8:55 am)30.23 "Hg (Mar 23, 8:55 am)
Low32 °F (Apr 2, 4:15 am)23% (Apr 4, 5:15 pm)29.75 "Hg (Mar 24, 7:35 pm)
Average55 °F66%30.01 "Hg
* Reported Mar 23 3:15 am — Apr 7 3:35 am, Danville. Weather by CustomWeather, © 2020

Note: Actual official high and low records may vary slightly from our data, if they occured in-between our weather recording intervals... More about our weather records

Danville Weather History for the Previous 24 Hours

Scroll right to see more
 ConditionsComfort  
Time TempWeatherWind HumidityBarometerVisibility
3:35 am
Tue, Apr 7
52 °FPassing clouds.No wind94%30.02 "Hg10 mi
3:15 am52 °FPassing clouds.No wind94%30.02 "Hg10 mi
2:55 am52 °FClear.No wind94%30.03 "Hg10 mi
2:35 am52 °FClear.No wind94%30.03 "Hg10 mi
1:55 am54 °FClear.No wind88%30.04 "Hg10 mi
1:35 am54 °FClear.No wind88%30.04 "Hg10 mi
1:15 am55 °FClear.No wind82%30.04 "Hg10 mi
12:55 am55 °FClear.No wind82%30.03 "Hg10 mi
12:35 am55 °FClear.No wind82%30.03 "Hg10 mi
12:15 am55 °FClear.No wind82%30.03 "Hg10 mi
11:55 pm
Mon, Apr 6
55 °FPassing clouds.No wind82%30.04 "Hg10 mi
11:35 pm57 °FPassing clouds.No wind77%30.04 "Hg10 mi
11:15 pm59 °FClear.No wind72%30.04 "Hg10 mi
10:55 pm59 °FClear.No wind72%30.05 "Hg10 mi
10:15 pm61 °FClear.No wind68%30.05 "Hg10 mi
9:55 pm63 °FClear.No wind64%30.04 "Hg10 mi
9:35 pm63 °FClear.No wind64%30.03 "Hg10 mi
8:55 pm64 °FClear.No wind56%30.02 "Hg10 mi
8:15 pm70 °FClear.No wind43%30.03 "Hg10 mi
7:55 pm72 °FSunny.No wind41%30.02 "Hg10 mi
7:35 pm72 °FSunny.3 mph41%30.03 "Hg10 mi
7:15 pm72 °FSunny.3 mph41%30.02 "Hg10 mi
6:55 pm73 °FSunny.3 mph38%30.03 "Hg10 mi
6:35 pm73 °FSunny.7 mph38%30.03 "Hg10 mi
6:15 pm73 °FSunny.5 mph38%30.04 "Hg10 mi
5:55 pm73 °FSunny.5 mph38%30.03 "Hg10 mi
5:35 pm73 °FSunny.7 mph38%30.03 "Hg10 mi
5:15 pm73 °FSunny.3 mph38%30.04 "Hg10 mi
4:55 pm73 °FSunny.No wind38%30.04 "Hg10 mi
4:35 pm73 °FScattered clouds.6 mph38%30.05 "Hg10 mi
4:15 pm73 °FScattered clouds.6 mph38%30.05 "Hg10 mi
3:55 pm73 °FScattered clouds.9 mph41%30.06 "Hg10 mi
3:35 pm73 °FScattered clouds.6 mph38%30.07 "Hg10 mi
3:15 pm72 °FScattered clouds.6 mph38%30.08 "Hg10 mi
2:55 pm73 °FScattered clouds.13 mph36%30.09 "Hg10 mi
2:35 pm72 °FScattered clouds.7 mph41%30.09 "Hg10 mi
1:55 pm72 °FScattered clouds.10 mph41%30.10 "Hg10 mi
1:35 pm72 °FSunny.9 mph44%30.11 "Hg10 mi
1:15 pm70 °FScattered clouds.6 mph50%30.11 "Hg10 mi
12:55 pm70 °FScattered clouds.7 mph50%30.12 "Hg10 mi
12:35 pm68 °FScattered clouds.6 mph53%30.13 "Hg10 mi
12:15 pm68 °FSunny.5 mph53%30.13 "Hg10 mi
11:55 am68 °FSunny.6 mph53%30.14 "Hg10 mi
11:35 am66 °FSunny.5 mph56%30.14 "Hg10 mi
11:15 am64 °FSunny.No wind60%30.14 "Hg10 mi
10:55 am63 °FSunny.No wind68%30.15 "Hg10 mi
10:35 am61 °FSunny.No wind68%30.15 "Hg10 mi
10:15 am59 °FSunny.No wind77%30.15 "Hg10 mi
9:55 am57 °FSunny.No wind77%30.15 "Hg10 mi
9:35 am55 °FSunny.No wind82%30.15 "Hg10 mi
9:15 am54 °FSunny.No wind88%30.15 "Hg10 mi
8:55 am52 °FSunny.No wind100%30.15 "Hg7 mi
8:15 am48 °FFog.No wind100%30.14 "Hg4 mi
7:55 am46 °FFog.No wind100%30.13 "Hg4 mi
7:15 am46 °FFog.No wind100%30.12 "Hg3 mi
6:55 am45 °FFog.No wind100%30.11 "Hg3 mi
6:35 am46 °FFog.No wind100%30.10 "Hg2 mi
6:15 am46 °FFog.No wind100%30.10 "Hg2 mi
5:55 am48 °FFog.No wind94%30.10 "Hg4 mi
5:15 am50 °FFog.No wind88%30.10 "Hg5 mi
4:55 am50 °FFog.No wind88%30.10 "Hg5 mi
4:15 am52 °FClear.No wind82%30.10 "Hg10 mi
Weather by CustomWeather, © 2020

See weather overview

Advertising